Lawrence, KS

8:23 PM CST on January 24, 2017 (GMT -0600)
Lawrence Municipal

Weather History for KLWC - April, 2013

Change the Weather History Date:

Friday, April 12, 2013

  Actual Average Record
Temperature  
Mean Temperature 44 °F 54 °F  
Max Temperature 55 °F 66 °F 86 °F (2003)
Min Temperature 32 °F 42 °F 23 °F (2016)
Degree Days  
Heating Degree Days 21 12  
Month to date heating degree days 199 161  
Since 1 July heating degree days 4846 4817  
Cooling Degree Days 0 1  
Month to date cooling degree days 0 5  
Year to date cooling degree days 0 8  
Moisture  
Dew Point 29 °F    
Average Humidity 65    
Maximum Humidity 89    
Minimum Humidity 41    
Precipitation  
Precipitation 0.00 in 0.12 in 0.75 in (2015)
Month to date precipitation 1.59 1.17  
Year to date precipitation 5.99 6.10  
Sea Level Pressure  
Sea Level Pressure 29.93 in    
Wind  
Wind Speed 11 mph (WNW)    
Max Wind Speed 21 mph    
Max Gust Speed 26 mph    
Visibility 10 miles    
Events      
T = Trace of Precipitation, MM = Missing Value Source: NWS Daily Summary

Daily Weather History Graph

Daily Weather History Graph

Search for Another Location

Airport or City:

Trip Planner

Search our weather history database for the weather conditions in past years. The results will help you decide how hot, cold, wet, or windy it might be!

Date:

Astronomy

Apr. 12, 2013 Rise Set
Actual Time 6:48 AM CDT 7:55 PM CDT
Civil Twilight 6:20 AM CDT 8:22 PM CDT
Nautical Twilight 5:48 AM CDT 8:55 PM CDT
Astronomical Twilight 5:14 AM CDT 9:30 PM CDT
Moon 7:59 AM CDT (4/12) 10:25 PM CDT (4/12)
Length of Visible Light 14h 02m
Length of Day
13h 07m
Waxing Crescent, 5% of the Moon is Illuminated
Apr 12
Waxing Crescent
Apr 18
First Quarter
Apr 25
Full
May 2
Last Quarter
May 9
New

Hourly Weather History & Observations

Time (CDT) Temp. Windchill Dew Point Humidity Pressure Visibility Wind Dir Wind Speed Gust Speed Precip Events Conditions
12:52 AM 35.1 °F 29.3 °F 26.1 °F 70% 29.82 in 10.0 mi WSW 6.9 mph - N/A   Clear
1:52 AM 34.0 °F 26.6 °F 27.0 °F 75% 29.82 in 10.0 mi West 9.2 mph - N/A   Clear
2:52 AM 33.1 °F 24.9 °F 27.0 °F 78% 29.83 in 10.0 mi WNW 10.4 mph - N/A   Clear
3:52 AM 33.1 °F 23.9 °F 27.0 °F 78% 29.83 in 10.0 mi WNW 12.7 mph - N/A   Clear
4:52 AM 32.0 °F 23.0 °F 26.1 °F 79% 29.85 in 10.0 mi West 11.5 mph - N/A   Clear
5:52 AM 32.0 °F 23.6 °F 26.1 °F 79% 29.86 in 10.0 mi WNW 10.4 mph - N/A   Partly Cloudy
6:52 AM 33.1 °F 23.4 °F 26.1 °F 75% 29.88 in 10.0 mi WNW 13.8 mph - N/A   Overcast
7:00 AM 33.8 °F 23.5 °F 26.6 °F 75% 29.86 in 10.0 mi WNW 16.1 mph 23.0 mph N/A   Overcast
7:52 AM 34.0 °F 25.0 °F 26.1 °F 73% 29.91 in 10.0 mi WNW 12.7 mph - N/A   Overcast
8:36 AM 35.6 °F 26.2 °F 26.6 °F 70% 29.90 in 10.0 mi WNW 15.0 mph - N/A   Overcast
8:52 AM 37.0 °F 27.7 °F 27.0 °F 67% 29.92 in 10.0 mi WNW 16.1 mph - N/A   Overcast
9:52 AM 37.9 °F 28.5 °F 27.0 °F 65% 29.94 in 10.0 mi West 17.3 mph - N/A   Overcast
10:52 AM 39.9 °F 32.1 °F 28.9 °F 65% 29.96 in 10.0 mi WNW 13.8 mph - N/A   Overcast
11:52 AM 43.0 °F 37.2 °F 28.9 °F 58% 29.97 in 10.0 mi WNW 10.4 mph 20.7 mph N/A   Mostly Cloudy
12:52 PM 46.9 °F - 30.0 °F 52% 29.97 in 10.0 mi NW 15.0 mph 21.9 mph N/A   Mostly Cloudy
1:52 PM 46.9 °F - 28.9 °F 50% 29.97 in 10.0 mi WNW 15.0 mph 21.9 mph N/A   Scattered Clouds
2:52 PM 51.1 °F - 30.9 °F 46% 29.97 in 10.0 mi WNW 10.4 mph - N/A   Partly Cloudy
3:52 PM 53.1 °F - 30.0 °F 41% 29.96 in 10.0 mi West 12.7 mph 21.9 mph N/A   Clear
4:52 PM 54.0 °F - 30.9 °F 41% 29.95 in 10.0 mi WNW 12.7 mph 21.9 mph N/A   Partly Cloudy
5:52 PM 55.0 °F - 32.0 °F 42% 29.95 in 10.0 mi WNW 15.0 mph - N/A   Partly Cloudy
6:52 PM 53.1 °F - 30.9 °F 43% 29.95 in 10.0 mi WNW 10.4 mph 20.7 mph N/A   Clear
7:52 PM 48.0 °F - 32.0 °F 54% 29.97 in 10.0 mi NNW 10.4 mph - N/A   Clear
8:52 PM 42.1 °F 37.7 °F 30.9 °F 65% 30.00 in 10.0 mi NNW 6.9 mph - N/A   Clear
9:52 PM 41.0 °F 39.0 °F 30.9 °F 67% 30.02 in 10.0 mi NW 3.5 mph - N/A   Clear
10:52 PM 36.0 °F - 30.9 °F 82% 30.04 in 10.0 mi Calm Calm - N/A   Clear
11:52 PM 34.0 °F 31.0 °F 30.0 °F 85% 30.06 in 10.0 mi NNE 3.5 mph - N/A   Clear